Flag for U.S.A. Weather past 2 weeks in Helena, Montana, U.S.A.

Now
36 °F

Sunny.


Feels Like: 28 °F
Forecast: 29 / 37 °F
Wind: 13 mph from Northwest

Location: Helena Regional Airport

Current Time: Dec 22, 2014 at 9:27:13 AM

Latest Report: Dec 22, 2014 at 8:53 AM


Visibility: 10 mi

Pressure: 29.95 "Hg

Humidity: 57%

Dew point: 22 °F

Location of HelenaLocation

Historic Weather in Helena — Graph

°F

Helena temperature yesterday

Maximum temperature yesterday: 44 °F (at 9:53 AM)
Minimum temperature yesterday: 34 °F (at 12:53 AM)
Average temperature yesterday: 39 °F

Past Weeks' High & Low Weather Summary

 TemperatureHumidityPressure
High62 °F (Dec 12, 1:53 PM)97% (Dec 13, 3:53 PM)30.41 "Hg (Dec 13, 3:53 PM)
Low16 °F (Dec 15, 10:53 PM)25% (Dec 12, 1:53 PM)29.55 "Hg (Dec 21, 7:53 AM)
Average34 °F74%30.08 "Hg
* Reported Dec 7 7:53 AM — Dec 22 7:53 AM, Helena, Weather by CustomWeather, © 2014

Note: Actual official high and low records may vary slightly from our data, if they occured in-between our weather recording intervals... More about our weather records

Advertising

Helena weather history for previous 24 hours

 ConditionsComfort  
Time TempWeatherWind HumidityBarometerVisibility
7:53 AM
Dec 22
36 °FClear.10 mph59%29.94 "Hg10 mi
6:53 AM38 °FClear.24 mph53%29.91 "Hg10 mi
5:53 AM37 °FClear.29 mph57%29.88 "Hg10 mi
4:53 AM38 °FClear.15 mph55%29.89 "Hg10 mi
3:53 AM38 °FPassing clouds.9 mph63%29.88 "Hg10 mi
2:53 AM36 °FPassing clouds.15 mph75%29.86 "Hg10 mi
1:53 AM39 °FPassing clouds.15 mph62%29.85 "Hg10 mi
12:53 AM38 °FClear.12 mph63%29.85 "Hg10 mi
11:53 PM
Dec 21
39 °FClear.14 mph60%29.85 "Hg10 mi
10:53 PM39 °FPassing clouds.25 mph60%29.84 "Hg10 mi
9:53 PM41 °FClear.31 mph49%29.78 "Hg10 mi
8:53 PM39 °FClear.17 mph53%29.80 "Hg10 mi
7:53 PM39 °FClear.15 mph53%29.83 "Hg10 mi
6:53 PM40 °FClear.18 mph53%29.82 "Hg10 mi
5:53 PM40 °FClear.21 mph55%29.78 "Hg10 mi
4:53 PM41 °FPassing clouds.26 mph51%29.74 "Hg10 mi
3:53 PM42 °FSunny.29 mph47%29.70 "Hg10 mi
2:53 PM43 °FSunny.29 mph51%29.64 "Hg10 mi
1:53 PM43 °FSunny.38 mph53%29.62 "Hg10 mi
12:53 PM44 °FSunny.36 mph55%29.57 "Hg10 mi
11:53 AM44 °FBroken clouds.24 mph60%29.62 "Hg10 mi
10:53 AM41 °FLight rain. Scattered clouds.30 mph74%29.63 "Hg8 mi
9:53 AM44 °FSunny.18 mph63%29.57 "Hg10 mi
Weather by CustomWeather, © 2014

See weather overviewHow to use our weather pages